Location: Melbourne
(37.8170°S, 144.9670°E)
Time: 11:12:48
(UTC+11:00)

CZ-3 R/B - Visible Passes

Search period start: 19 January 2017 00:00
Search period end: 29 January 2017 00:00
Orbit: 233 x 10640 km, 28.5° (Epoch: 18 January)

Date Brightness Start Highest point End Pass type
(mag) Time Alt. Az. Time Alt. Az. Time Alt. Az.
19 Jan 6.8 20:38:18 10° WNW 21:03:13 24° NNW 21:58:40 10° N visible
20 Jan 7.0 21:40:55 10° WNW 22:05:42 16° NNW 22:47:39 10° N visible
23 Jan 6.8 20:30:27 10° WNW 20:52:11 19° NNW 21:36:40 10° N visible
24 Jan 7.0 21:38:13 10° NW 21:55:25 12° NNW 22:20:01 10° NNW visible
27 Jan 6.8 20:23:24 10° NW 20:40:40 14° NNW 21:10:49 10° N visible
